Flag for Canada Weather past 2 weeks in Thunder Bay, Ontario, Canada

Now
3 °F

Clear.


Feels Like: -11 °F
Forecast: -6 / 14 °F
Wind: 9 mph from West

Location: Thunder Bay

Current Time: Feb 26, 2015 at 8:36:15 PM

Latest Report: Feb 26, 2015 at 8:00 PM


Visibility: 15 mi

Pressure: 30.39 "Hg

Humidity: 55%

Dew point: -9 °F

Location of Thunder BayLocation

Historic Weather in Thunder Bay — Graph

°F

Thunder Bay temperature yesterday

Maximum temperature yesterday: 5 °F (at 3:00 PM)
Minimum temperature yesterday: -15 °F (at 8:00 AM)
Average temperature yesterday: -5 °F

Past Weeks' High & Low Weather Summary

 TemperatureHumidityPressure
High19 °F (Feb 24, 4:00 AM)92% (Feb 17, 1:00 AM)30.80 "Hg (Feb 17, 1:00 AM)
Low-35 °F (Feb 15, 6:00 AM)33% (Feb 23, 2:00 PM)29.41 "Hg (Feb 24, 5:00 AM)
Average-6 °F65%30.21 "Hg
* Reported Feb 11 7:00 PM — Feb 26 7:00 PM, Thunder Bay, Weather by CustomWeather, © 2015

Note: Actual official high and low records may vary slightly from our data, if they occured in-between our weather recording intervals... More about our weather records

Advertising

Thunder Bay weather history for previous 24 hours

 ConditionsComfort  
Time TempWeatherWind HumidityBarometerVisibility
7:00 PM
Thu, Feb 26
5 °FClear.10 mph51%30.37 "Hg15 mi
6:00 PM9 °FSunny.14 mph43%30.35 "Hg20 mi
5:00 PM10 °FSunny.14 mph40%30.35 "Hg20 mi
4:00 PM9 °FSunny.12 mph43%30.36 "Hg20 mi
3:00 PM7 °FSunny.14 mph47%30.38 "Hg20 mi
2:00 PM7 °FSunny.6 mph43%30.40 "Hg20 mi
1:00 PM3 °FPassing clouds.10 mph46%30.42 "Hg20 mi
12:00 PM0 °FSunny.9 mph50%30.44 "Hg20 mi
11:00 AM-4 °FSunny.12 mph59%30.44 "Hg20 mi
10:00 AM-8 °FSunny.7 mph64%30.45 "Hg20 mi
9:00 AM-17 °FSunny.7 mph76%30.45 "Hg20 mi
8:00 AM-18 °FSunny.7 mph75%30.43 "Hg20 mi
7:00 AM-22 °FClear.7 mph68%30.43 "Hg15 mi
6:00 AM-18 °FClear.7 mph75%30.41 "Hg15 mi
5:00 AM-24 °FClear.5 mph75%30.41 "Hg15 mi
4:00 AM-24 °FClear.7 mph75%30.40 "Hg15 mi
3:00 AM-24 °FExtremely cold.3 mph75%30.39 "Hg15 mi
2:00 AM-20 °FClear.3 mph75%30.37 "Hg15 mi
1:00 AM-17 °FClear.6 mph76%30.36 "Hg15 mi
12:00 AM-17 °FClear.6 mph69%30.34 "Hg15 mi
11:00 PM
Wed, Feb 25
-11 °FClear.5 mph70%30.32 "Hg15 mi
10:00 PM-4 °FClear.2 mph59%30.31 "Hg15 mi
9:00 PM-6 °FClear.3 mph59%30.29 "Hg15 mi
8:00 PM-2 °FClear.5 mph49%30.26 "Hg15 mi
Weather by CustomWeather, © 2015

See weather overviewHow to use our weather pages